CW9592 Weather Reports


time (UTC)temp
C
wind
direction
speed
KPH
gust
KPH
rain 1hr
cm
rain 24hr
cm
rain mn
cm
humidity
%
barometer
mb
20260509200701 13 317 3.2 4.8 0.00 0.00 0.00 78 1018.1
20260509200201 13 317 3.2 4.8 0.00 0.00 0.00 78 1018.0
20260509190702 13 289 1.6 3.2 0.00 0.00 0.00 78 1017.7
20260509190201 13 289 1.6 14.5 0.00 0.00 0.00 77 1017.7
20260509180700 13 235 6.4 11.3 0.00 0.00 0.00 78 1017.2
20260509170701 14 261 4.8 9.7 0.00 0.00 0.00 77 1016.7
20260509170202 14 276 3.2 12.9 0.00 0.00 0.00 77 1016.6
20260509160701 15 352 3.2 4.8 0.00 0.00 0.00 77 1015.3
20260509160201 15 317 4.8 14.5 0.00 0.00 0.00 76 1015.3
20260509150701 15 260 3.2 9.7 0.00 0.00 0.00 76 1015.0
20260509150201 15 241 4.8 14.5 0.00 0.00 0.00 76 1015.0
20260509140701 16 263 9.7 14.5 0.00 0.00 0.00 76 1014.7
20260509130701 16 262 11.3 16.1 0.00 0.00 0.00 75 1014.7
20260509130201 16 253 9.7 19.3 0.00 0.00 0.00 75 1014.7
20260509120701 16 259 14.5 20.9 0.00 0.00 0.00 76 1015.2
20260509110703 16 264 12.9 19.3 0.00 0.00 0.00 75 1015.6
20260509110201 16 264 14.5 22.5 0.00 0.00 0.00 75 1015.6
20260509100701 16 315 14.5 19.3 0.00 0.00 0.00 75 1015.8
20260509100201 16 312 11.3 19.3 0.00 0.00 0.00 75 1015.9
20260509090201 16 333 11.3 19.3 0.00 0.00 0.00 76 1016.8
20260509080701 13 24 4.8 11.3 0.00 0.00 0.00 81 1016.9
20260509080201 13 357 9.7 19.3 0.00 0.00 0.00 81 1017.0
20260509070201 13 0 9.7 16.1 0.00 0.00 0.00 83 1017.1
20260509060701 13 42 4.8 9.7 0.00 0.00 0.00 84 1016.7
20260509060202 13 6 3.2 11.3 0.00 0.00 0.00 84 1016.7
20260509050702 13 42 3.2 4.8 0.00 0.00 0.00 85 1016.4
20260509050201 12 39 3.2 9.7 0.00 0.00 0.00 85 1016.3
20260509040701 12 3 4.8 8.0 0.00 0.03 0.00 86 1016.0
20260509040202 12 29 3.2 12.9 0.00 0.03 0.00 86 1016.0
20260509030701 12 30 4.8 9.7 0.00 0.03 0.00 87 1015.7
20260509030202 12 13 8.0 16.1 0.00 0.03 0.00 87 1015.8
20260509020202 12 24 4.8 19.3 0.00 0.03 0.00 88 1015.5
20260509010703 12 356 8.0 14.5 0.00 0.03 0.00 88 1015.8
20260509010202 11 3 11.3 20.9 0.00 0.03 0.00 88 1015.8
20260509000702 12 14 4.8 16.1 0.00 0.03 0.00 88 1016.1
20260509000201 12 2 8.0 19.3 0.00 0.03 0.00 88 1016.0
20260508230701 12 346 6.4 11.3 0.00 0.03 0.00 88 1016.0
20260508230202 12 7 4.8 14.5 0.00 0.03 0.00 88 1016.0
20260508220702 12 11 4.8 8.0 0.00 0.03 0.00 88 1015.8
20260508220203 12 29 3.2 12.9 0.00 0.03 0.00 88 1015.8
20260508210701 12 26 4.8 9.7 0.00 0.03 0.03 88 1015.7
20260508210203 12 15 3.2 12.9 0.00 0.03 0.03 88 1015.7